Regional Weather Roundup
Issued by NWS Pendleton, OR

Home | Current Version | Previous Version | Text Only | Print | Product List | Glossary On
Versions: 1 2 3 4 5 6 7 8 9 10 11 12 13 14 15 16 17 18 19 20 21 22 23 24 25 26 27 28 29 30 31 32 33 34 35 36 37 38 39 40 41 42 43 44 45 46 47 48 49 50
000
ASUS46 KPDT 280510
RWRPDT
PENDLETON REGIONAL WEATHER ROUNDUP
NATIONAL WEATHER SERVICE PENDLETON OREGON
1000 PM PDT MON APR 27 2015

NOTE: FAIR INDICATES FEW OR NO CLOUDS BELOW 12,000 FEET WITH NO
SIGNIFICANT WEATHER AND/OR OBSTRUCTIONS TO VISIBILITY.

# INDICATES UNOFFICIAL STATION AND DATA

WAZ520-280610-
EAST SLOPES OF WASHINGTON CASCADES

CITY            SKY/WX      TMP DP  RH  WIND    PRES   REMARKS
#BULLFROG 2SW   N/A         54  40  59  S2      27.73R
#BUMPING DAM    N/A         50  N/A N/A N6      N/A
#CLE ELUM HS    N/A         59  41  51  CALM    30.06S
#CLE ELUM LAKE  N/A         57  41  55  CALM    30.06S
#CLIFFDEL 2NW   N/A         56  41  57  CALM    N/A
#EASTON DOT     N/A         60  22  23  N7      N/A
#GLENWOOD       N/A         60  44  55  CALM    30.06S
#MANASTASH CYN  N/A         49  38  66  CALM    30.11F
#NELSON         N/A         59  44  57  CALM    30.08S
#NELSON 3SW     N/A         49  43  80  CALM    30.29R
#NILE           N/A         52  44  74  CALM    29.35S
#PEOH POINT     N/A         53  38  57  E9      N/A
#RONALD 2NW     N/A         58  42  55  E3      30.01R
#SNOWDEN        N/A         61  25  25  E7      N/A
#TEANAWAY 4NE   N/A         55  44  66  CALM    N/A
#TROUT LAKE 1NE N/A         54  46  74  CALM    30.05S
$$

WAZ521-280610-
SIMCOE HIGHLANDS

CITY            SKY/WX      TMP DP  RH  WIND    PRES   REMARKS
#BICKLETON HS   N/A         52  28  39  NE3     N/A
#SATUS PASS DOT N/A         53  32  45  NE1     N/A
#CENTERVILLE 4W N/A         60  42  51  NE8     29.83S
#CENTERVILLE 1SWN/A         56  41  57  NE9     30.02R
#GOLDENDALE     N/A         60  39  46  E7      N/A
#GOLDENDALE 1NE N/A         62  28  27  N7      N/A
#GOLDENDALE 5WNWN/A         62  42  48  E3      30.04R
#GOODNOE HILLS  N/A         66  38  36  NE15    N/A
#LYLE 6NE       N/A         63  42  46  CALM    30.02R
$$

WAZ026-280610-
KITTITAS VALLEY

CITY            SKY/WX      TMP DP  RH  WIND    PRES   REMARKS
ELLENSBURG AP   PTCLDY      56  41  57  S3      30.11S
YTC-OPS AREA    CLEAR       56  37  49  NE10    30.13F
#ELLENSBURG CWU N/A         60  41  49  E3      30.03S
#ELLENSBURG 3NE N/A         55  42  61  CALM    30.11S
#ELLENSBURG 1E  N/A         56  39  53  CALM    N/A
#KITTITAS 4N    N/A         58  41  53  NW1     28.43S
#KITTITAS 3S    N/A         49  42  77  CALM    30.05S
#THORP 6N       N/A         53  41  64  SE2     30.11R
$$

WAZ027-280610-
YAKIMA VALLEY

CITY            SKY/WX      TMP DP  RH  WIND    PRES   REMARKS
SUNNYSIDE AP    PTCLDY      61  36  39  E7      30.08F
YAKIMA AIRPORT  PTCLDY      55  40  57  W6      30.10S
#DONALD 2NE     N/A         63  25  23  N1      28.94S
#GRANDVIEW      N/A         59  35  40  NE1     30.08F
#MABTON         N/A         57  37  47  CALM    30.07F
#MOXEE 2E       N/A         73  26  17  E5      29.99
#NACHES 2SW     N/A         59  44  57  CALM    30.11S
#TERRACE HTS    N/A         61  41  48  CALM    30.04S
#WAPATO 4NE     N/A         63  25  23  N1      28.94S
#WEST VALLEY    N/A         60  43  53  CALM    30.06S
#W YAKIMA       N/A         63  41  44  CALM    30.07S
#WHITE SWAN 5E  N/A         56  43  62  NW2     30.08S
$$

WAZ028-280610-
LOWER COLUMBIA BASIN...WASHINGTON

CITY            SKY/WX      TMP DP  RH  WIND    PRES   REMARKS
PASCO           PTCLDY      50  43  77  N8      30.08S
PROSSER AWOS    N/A         57  39  51  NE1     30.11F
RICHLAND AWOS   PTCLDY      59  39  47  NW5     30.08S
#BASIN CITY 5SW N/A         54  42  64  NE1     30.09S
#BENTON CITY    N/A         63  38  39  CALM    29.98S
#CONNELL 5N     N/A         55  35  47  CALM    30.09S
#CONNELL 5NW    N/A         57  36  45  NE5     30.05F
#ELTOPIA        N/A         58  38  47  N3      30.03F
#ELTOPIA 6NW    N/A         57  40  53  N6      29.05F
#KAHLOTUS       N/A         56  37  49  S15     30.09F
#KENNEWICK      N/A         54  40  59  S2      27.73R
#KENNEWICK 3S   N/A         62  39  43  CALM    30.07F
#PATERSON       N/A         64  39  40  NE7     30.03F
#PROSSER DOT    N/A         61  42  50  E2      N/A
#PROSSER        N/A         63  33  32  CALM    30.06F
#SAGEMOOR 2W    N/A         55  43  64  W3      29.92F
#TOUCHET 2S     N/A         49  43  80  CALM    30.05S
#WEST PASCO     N/A         61  41  48  N1      30.08S
$$

WAZ029-280610-
FOOTHILLS OF THE BLUES...WASHINGTON

CITY            SKY/WX      TMP DP  RH  WIND    PRES   REMARKS
WALLA WALLA AP  PTCLDY      58  39  49  E6      30.08S
#DAYTON SCHOOL  N/A         55  33  43  NE2     30.12R
#DELANEY DOT    N/A         64  30  28  E1      N/A
#LOWDEN 2SE     N/A         54  44  69  E1      30.03S
#PLEASANT VIEW 1N/A         60  34  37  NE5     30.13F
#PRESCOTT       N/A         56  40  55  CALM    30.06S
#SUDBURY        N/A         50  N/A N/A CALM    N/A
#WHITMAN COLLEGEN/A         62  40  44  CALM    30.10S
#WAITSBURG 5S   N/A         56  38  51  E3      30.16S
#WAITSBURG 8N   N/A         55  15  20  NW6     29.94S
#WALLA WALLA 5E N/A         54  40  59  NE6     N/A
#WALLA WALLA U  N/A         59  42  53  CALM    30.05S
#WHITMAN MISSIONN/A         55  43  64  CALM    30.07S
$$

WAZ030-280610-
BLUE MOUNTAINS...WASHINGTON

CITY            SKY/WX      TMP DP  RH  WIND    PRES   REMARKS
#DIXIE 5SE      N/A         61  25  25  E7      30.06F
$$

ORZ009-041-WAZ024-280610-
COLUMBIA RIVER GORGE

CITY            SKY/WX      TMP DP  RH  WIND    PRES   REMARKS
HOOD RIVER AP   PTCLDY      64  43  46  CALM    30.05S
THE DALLES AP   PTCLDY      61  43  51  W3      30.04R
#ARLINGTON AIRPON/A         59  39  47  E9      29.82F
#ARLINGTON HS   N/A         65  39  38  N1      29.95S
#CELILO DOT     N/A         69  41  36  E3      N/A
#MARYHILL       N/A         67  40  37  CALM    N/A
#MOSIER 1S      N/A         63  29  28  CALM    30.03S
#MURDOCK        N/A         66  45  47  E2      30.05R
#RUFUS DOT      N/A         67  41  39  S2      N/A

$$

ORZ510-280610-
NORTH CENTRAL OREGON

CITY            SKY/WX      TMP DP  RH  WIND    PRES   REMARKS
#CHENOWITH 1W   N/A         61  39  44  E9      N/A
#COW CYN RST AREN/A         61  46  58  N8      N/A
#DUFUR 9E       N/A         63  39  41  E24     30.09S
#GRASS VALLEY 1SN/A         59  39  47  E12     30.06F
#KENT DOT       N/A         58  30  34  E9      N/A
#MAUPIN SCHOOL  N/A         68  40  36  N2      30.06S
#MORO SCHOOL    N/A         57  45  64  CALM    30.09S
#SHANIKO 5WSW   N/A         57  30  35  NE23    N/A
#SHANIKO 4NW    N/A         56  35  45  E15     30.10S
#TYGH VALLEY 2NEN/A         65  41  41  NE2     30.03R
#WAPANITIA AIRPON/A         61  40  46  N1      30.06R
#WASCO DOT      N/A         48  39  71  SE2     N/A
#WASCO 5NE      N/A         62  42  48  N3      30.05S
$$

ORZ511-280610-
CENTRAL OREGON

CITY            SKY/WX      TMP DP  RH  WIND    PRES   REMARKS
BEND AIRPORT    PTCLDY      55  37  51  CALM    30.10R
MADRAS AIRPORT  CLEAR       55  39  55  NW8     30.08R
PRINEVILLE AP   PTCLDY      64  28  25  SE10    30.08R
REDMOND AIRPORT PTCLDY      55  38  53  S9      30.08R
#BEND 1SW       N/A         53  42  66  N2      N/A
#BEND-AWBREY    N/A         60  42  51  CALM    30.02S
#BEND-KIM LN    N/A         61  43  51  CALM    30.08R
#CROOKED RVR RANN/A         62  42  48  NE5     30.00R
#CULVER         N/A         59  42  53  CALM    30.03R
#LAKE BILLY CHINN/A         63  12  13  NW5     30.14R
#POWELL BUTTE 3EN/A         64  29  27  SE3     N/A
#PRINEVILLE 3N  N/A         54  37  52  N2      29.98R
#WARM SPRINGS   N/A         65  42  43  SW3     30.01R

$$


ORZ509-280610-
EAST SLOPES OF OREGON CASCADES

CITY            SKY/WX      TMP DP  RH  WIND    PRES   REMARKS
#BLUE BOX PASS  N/A         53   0  11  CALM    N/A
#CAMP SHERMAN   N/A         51  41  68  CALM    30.04F
#LA PINE 4NW    N/A         55  39  55  CALM    30.09S
#LAVA BUTTE DOT N/A         54  33  45  NE6     N/A
#SISTERS AIRPOR N/A         53  47  80  CALM    30.17S
#SISTERS ODOT   N/A         53  N/A N/A CALM    N/A
#SISTERS 3N     N/A         50  37  61  CALM    30.10S
#SUNRIVER       N/A         56  40  55  CALM    29.93S
#TUMALO 3W      N/A         61  41  48  W5      29.90S
#WANOGA BUTTE D N/A         55  33  43  CALM    N/A

$$

ORZ044-280610-
LOWER COLUMBIA BASIN...OREGON

CITY            SKY/WX      TMP DP  RH  WIND    PRES   REMARKS
HERMISTON       MOCLDY      56  40  55  E3      30.06S
#BOARDMAN 8SW   N/A         61  42  50  N3      30.05S
#IONE SCHOOL    N/A         63  38  39  CALM    30.03S
#IRRIGON 4NW    N/A         64  38  38  E6      N/A
#UMATILLA SCHOOLN/A         62  47  58  S2      30.09F
#UMATILLA       N/A         71  39  31  CALM    29.98S
$$

ORZ507-280610-
NORTHERN FOOTHILLS OF THE BLUES

CITY            SKY/WX      TMP DP  RH  WIND    PRES   REMARKS
PENDLETON AIRPT MOCLDY      56  33  42  SE7     30.08S
#ADAMS 3WNW     N/A         54  37  52  E3      30.08S
#CAYUSE         N/A         59  42  53  E5      30.05S
#HELIX SCHOOL   N/A         59  33  37  CALM    30.07F
#HELIX 3N       N/A         58  33  39  N2      30.06S
#HOLDMAN 6E     N/A         59  34  39  S6      29.88S
#M-F FERNDALE   N/A         59  39  47  CALM    30.05S
#M-F GROVE ELEM N/A         55  38  53  CALM    30.06S
#M-FREEWATER 5SEN/A         55  40  57  CALM    30.07F
#PENDLETON DNTN N/A         59  31  34  CALM    30.08S
#PDT AQUATIC CTRN/A         59  31  34  E2      30.09S
#PENDLETON 5NE  N/A         55  39  55  CALM    30.04S
#PDT SUNRIDGE   N/A         57  39  51  E1      30.09S
#PENDLETON 7NW  N/A         56  39  53  CALM    30.04S
#PILOT ROCK     N/A         54  38  55  CALM    30.10F
#TUTUILLA       N/A         52  41  66  CALM    30.07F
#UMAPINE 2E     N/A         51  43  74  CALM    30.04S
#WESTON SCHOOL  N/A         54  34  47  CALM    30.07F

$$

ORZ508-280610-
SOUTHERN FOOTHILLS OF THE BLUES

CITY            SKY/WX      TMP DP  RH  WIND    PRES   REMARKS
LEXINGTON       MOCLDY      63  36  36  NE9     30.09S
#AJAX           N/A         61  32  33  N16     30.01S
#CONDON SCHOOL  N/A         56  37  49  CALM    30.05F
#CONDON 5W      N/A         56  33  42  NE10    30.08F
#FOSSIL SCHOOL  N/A         54  39  57  CALM    30.06R
#HEPPNER EOC    N/A         63  37  38  E5      29.98F
#HEPPNER 4NE    N/A         58  36  44  SE7     30.05F
#LEXINGTON 2SE  N/A         61  36  39  NE2     30.04S
#MIKKALO        N/A         62  35  36  E6      30.08S
#OLEX 4N        N/A         62  39  43  NE5     30.05F
#RUGGS 5NE      N/A         57  35  43  E1      30.27S
#RUGGS 2SW      N/A         56  39  53  SW6     30.07S

$$

ORZ502-503-280610-
BLUE MOUNTAINS

CITY            SKY/WX      TMP DP  RH  WIND    PRES   REMARKS
MEACHAM         PTCLDY      45  36  70  CALM    30.17S
#BATTLE MTN DOT N/A         55  41  59  SE3     N/A
#HEPPNER 15SE   N/A         48  38  68  CALM    30.07S
#LADD CYN SMT   N/A         44  30  58  E9      N/A
#LADD CREEK ODOTN/A         48  33  56  SW7     N/A
#LONG CREEK HS  N/A         51  43  74  CALM    30.10S
#N POWDER DOT   N/A         50  40  68  NW2     N/A
#PIKES PEAK     N/A         62  29  28  SE20    27.99S
#TOLLGATE       N/A         49  30  48  CALM    30.11S
#TROY SCHOOL    N/A         53  39  59  CALM    30.00R
#UKIAH          N/A         46  40  79  CALM    30.17S
#WESTON 4E      N/A         59  31  34  E10     30.05S
$$

ORZ505-280610-
JOHN DAY BASIN

CITY            SKY/WX      TMP DP  RH  WIND    PRES   REMARKS
JOHN DAY        CLEAR       60  31  33  E9      30.16R
#JOHN DAY KJDY  N/A         57  42  57  CALM    30.14F
#DAYVILLE SCHOOLN/A         60  37  42  CALM    30.06S
#MITCHELL       N/A         60  42  51  E2      30.22R
#MONUMENT HS    N/A         50  48  93  CALM    30.08R
#MT. VERNON 5SE N/A         59  31  34  S3      30.11S
#WINLOCK        N/A         57  34  42  CALM    30.18R
$$

ORZ506-280610-
OCHOCO AND JOHN DAY HIGHLANDS

CITY            SKY/WX      TMP DP  RH  WIND    PRES   REMARKS
#BUCK CREEK DOT N/A         57  57  100 S2      N/A
#HORSE RIDGE DO N/A         61  25  25  E12     N/A
#KEYES SMT DOT  N/A         56  34  43  E6      N/A
#PAULINA SCHOOL N/A         61  34  36  CALM    30.09S
#PINE MTN OBS   N/A         52  27  38  E14G25  N/A
#PRAIRIE CITY   N/A         50  34  54  NE1     30.16R
#SENECA         N/A         50  N/A N/A CALM    N/A
#SENECA 9NW     N/A         43  33  67  CALM    30.16S
$$

ORZ049-280610-
GRANDE RONDE VALLEY

CITY            SKY/WX      TMP DP  RH  WIND    PRES   REMARKS
LA GRANDE       CLEAR       52  30  43  SW3     30.15R
#COVE SCHOOL    N/A         53  37  54  E1      30.12S
#ELGIN 3N       N/A         49  30  48  CALM    30.13R
#ELGIN 1E       N/A         55  36  49  CALM    N/A
#IMBLER SCHOOL  N/A         52  34  50  CALM    30.11R
#ISLAND CITY 4N N/A         69  51  53  CALM    29.90R
#LADD CYN DOT   N/A         54  35  48  SE18    N/A
#LA GRANDE ELEM N/A         51  35  54  CALM    30.17R
#UNION 1S       N/A         55  36  49  W1      30.06S
$$

ORZ050-280610-
WALLOWA COUNTY

CITY            SKY/WX      TMP DP  RH  WIND    PRES   REMARKS
#ENTERPRISE HS  N/A         50  35  56  CALM    30.18S
#IMNAHA SCHOOL  N/A         58  38  47  SW5     30.15R
#JOSEPH 3N      N/A         40  34  79  E3      30.20S
#JOSEPH 3W      N/A         47  32  56  SW2     30.03F
#LOSTINE        N/A         50  34  54  E3      29.98S
#MT HOWARD 8000 N/A         45  22  40  CALM    30.34R
#PROMISE 1S     N/A         47  33  58  CALM    30.27R
#SHEEP RDG 7000 N/A         48  26  42  CALM    30.25F
#WALLOWA SCHOOL N/A         50  35  56  CALM    31.11R



$$



USA.gov is the U.S. government's official web portal to all federal, state and local government web resources and services.